SHT9L EGPH-EGLL

Flight info

Callsign SHT9L
Flight time 0h 59m
Altitude 33000
Route GOSAM P600 FENIK L612 NAVSO DCT AKOMU DCT VAMEB DCT NUGRA
Aircraft A321/M-SDE3FGHIRWY/LB1

Departure

Time 2026-04-23 19:27
Airport Edinburgh Airport (EGPH)

Arrival

Time 2026-04-23 20:27
Airport London Heathrow Airport (EGLL)
Time Latitude Longitude Altitude Speed Heading
2026-04-23 18:46 55.94862 -3.36612 109 ft 0 kts 144°
2026-04-23 19:20 55.94881 -3.36635 107 ft 2 kts 151°
2026-04-23 19:20 55.94896 -3.36649 109 ft 2 kts 160°
2026-04-23 19:20 55.94912 -3.36657 110 ft 2 kts 182°
2026-04-23 19:20 55.94928 -3.36649 110 ft 2 kts 230°
2026-04-23 19:21 55.94934 -3.36637 109 ft 0 kts 240°
2026-04-23 19:22 55.94930 -3.36647 109 ft 4 kts 241°
2026-04-23 19:23 55.94902 -3.36731 109 ft 11 kts 240°
2026-04-23 19:23 55.94923 -3.36853 110 ft 11 kts 283°
2026-04-23 19:23 55.94893 -3.36991 109 ft 13 kts 237°
2026-04-23 19:24 55.94799 -3.37273 110 ft 13 kts 240°
2026-04-23 19:24 55.94756 -3.37402 113 ft 11 kts 238°
2026-04-23 19:24 55.94652 -3.37704 115 ft 16 kts 238°
2026-04-23 19:25 55.94520 -3.38090 113 ft 20 kts 238°
2026-04-23 19:25 55.94373 -3.38526 116 ft 20 kts 239°
2026-04-23 19:26 55.94299 -3.38875 120 ft 12 kts 316°
2026-04-23 19:26 55.94373 -3.38955 120 ft 14 kts 332°
2026-04-23 19:27 55.94634 -3.38311 117 ft 89 kts 57°
2026-04-23 19:27 55.96404 -3.33633 1293 ft 170 kts 43°
2026-04-23 19:28 55.98313 -3.30591 1940 ft 205 kts 43°
2026-04-23 19:28 56.01063 -3.28086 2409 ft 253 kts 354°
2026-04-23 19:29 56.02680 -3.29341 2987 ft 261 kts 316°
2026-04-23 19:29 56.03557 -3.35348 4410 ft 264 kts 258°
2026-04-23 19:30 56.02485 -3.41606 5903 ft 267 kts 250°
2026-04-23 19:30 56.01863 -3.44791 6612 ft 270 kts 251°
2026-04-23 19:30 56.00747 -3.51264 7964 ft 275 kts 253°
2026-04-23 19:31 56.00247 -3.54526 8647 ft 277 kts 254°
2026-04-23 19:31 55.99755 -3.57864 9329 ft 279 kts 255°
2026-04-23 19:31 55.99278 -3.61185 9993 ft 282 kts 255°
2026-04-23 19:31 55.98795 -3.64588 10640 ft 284 kts 255°
2026-04-23 19:32 55.98290 -3.68143 10812 ft 305 kts 255°
2026-04-23 19:32 55.97749 -3.71934 10940 ft 325 kts 255°
2026-04-23 19:32 55.97172 -3.75957 11074 ft 343 kts 255°
2026-04-23 19:32 55.96570 -3.80131 11478 ft 351 kts 255°
2026-04-23 19:33 55.95955 -3.84372 12012 ft 354 kts 255°
2026-04-23 19:33 55.95332 -3.88643 12565 ft 357 kts 255°
2026-04-23 19:33 55.94025 -3.97284 13652 ft 364 kts 249°
2026-04-23 19:34 55.92846 -4.01285 14176 ft 367 kts 233°
2026-04-23 19:34 55.91069 -4.04558 14641 ft 370 kts 217°
2026-04-23 19:34 55.86851 -4.09938 15607 ft 376 kts 215°
2026-04-23 19:35 55.84711 -4.12646 16095 ft 379 kts 215°
2026-04-23 19:35 55.82559 -4.15369 16574 ft 382 kts 215°
2026-04-23 19:35 55.80387 -4.18118 17060 ft 385 kts 215°
2026-04-23 19:35 55.78201 -4.20880 17533 ft 387 kts 214°
2026-04-23 19:36 55.75853 -4.23253 17972 ft 390 kts 202°
2026-04-23 19:36 55.73260 -4.24674 18399 ft 392 kts 190°
2026-04-23 19:36 55.70534 -4.25073 18809 ft 395 kts 178°
2026-04-23 19:36 55.67804 -4.24434 19182 ft 398 kts 166°
2026-04-23 19:37 55.65187 -4.22826 19570 ft 400 kts 155°
2026-04-23 19:37 55.62741 -4.20519 20215 ft 391 kts 150°
2026-04-23 19:37 55.60410 -4.18203 21060 ft 385 kts 151°
2026-04-23 19:37 55.58038 -4.15883 21164 ft 395 kts 151°
2026-04-23 19:38 55.55601 -4.13526 21375 ft 402 kts 151°
2026-04-23 19:38 55.53138 -4.11150 21748 ft 405 kts 151°
2026-04-23 19:38 55.50656 -4.08750 22121 ft 407 kts 151°
2026-04-23 19:38 55.48163 -4.06330 22495 ft 410 kts 151°
2026-04-23 19:39 55.45693 -4.03924 22866 ft 412 kts 151°
2026-04-23 19:39 55.43177 -4.01478 23224 ft 415 kts 151°
2026-04-23 19:39 55.40608 -3.98990 23590 ft 418 kts 151°
2026-04-23 19:39 55.38085 -3.96549 23943 ft 420 kts 151°
2026-04-23 19:40 55.35540 -3.94089 24251 ft 423 kts 151°
2026-04-23 19:40 55.32928 -3.91565 24543 ft 425 kts 151°
2026-04-23 19:40 55.31177 -3.89877 24753 ft 427 kts 151°
2026-04-23 19:40 55.27713 -3.86547 25142 ft 430 kts 151°
2026-04-23 19:41 55.25083 -3.84027 25434 ft 432 kts 151°
2026-04-23 19:41 55.22422 -3.81478 25580 ft 439 kts 151°
2026-04-23 19:41 55.20595 -3.79782 25733 ft 441 kts 152°
2026-04-23 19:41 55.16939 -3.76595 26084 ft 445 kts 154°
2026-04-23 19:42 55.15052 -3.75018 26268 ft 446 kts 154°
2026-04-23 19:42 55.12239 -3.72703 26548 ft 449 kts 154°
2026-04-23 19:42 55.09434 -3.70403 26813 ft 451 kts 154°
2026-04-23 19:42 55.06652 -3.68107 27092 ft 453 kts 154°
2026-04-23 19:43 55.03798 -3.65729 27372 ft 455 kts 154°
2026-04-23 19:43 55.00936 -3.63325 27649 ft 457 kts 154°
2026-04-23 19:43 54.98067 -3.60903 27914 ft 459 kts 154°
2026-04-23 19:43 54.95185 -3.58471 28185 ft 461 kts 154°
2026-04-23 19:44 54.92298 -3.56039 28431 ft 463 kts 154°
2026-04-23 19:44 54.89392 -3.53597 28659 ft 465 kts 154°
2026-04-23 19:44 54.86469 -3.51151 28887 ft 467 kts 154°
2026-04-23 19:44 54.83540 -3.48704 29096 ft 468 kts 154°
2026-04-23 19:45 54.80596 -3.46251 29302 ft 470 kts 154°
2026-04-23 19:45 54.77649 -3.43801 29589 ft 470 kts 154°
2026-04-23 19:45 54.74706 -3.41356 29882 ft 469 kts 154°
2026-04-23 19:45 54.71760 -3.38916 30170 ft 469 kts 154°
2026-04-23 19:46 54.68812 -3.36483 30464 ft 469 kts 154°
2026-04-23 19:46 54.65863 -3.34053 30689 ft 470 kts 154°
2026-04-23 19:46 54.62911 -3.31621 30925 ft 470 kts 154°
2026-04-23 19:46 54.59961 -3.29192 31145 ft 470 kts 154°
2026-04-23 19:47 54.57008 -3.26764 31371 ft 470 kts 154°
2026-04-23 19:47 54.54056 -3.24342 31603 ft 471 kts 154°
2026-04-23 19:47 54.51096 -3.21917 31834 ft 471 kts 154°
2026-04-23 19:47 54.48140 -3.19500 32064 ft 471 kts 153°
2026-04-23 19:48 54.45177 -3.17081 32298 ft 471 kts 153°
2026-04-23 19:48 54.42212 -3.14664 32519 ft 471 kts 153°
2026-04-23 19:48 54.39249 -3.12255 32734 ft 472 kts 153°
2026-04-23 19:48 54.36286 -3.09850 32964 ft 472 kts 153°
2026-04-23 19:49 54.33317 -3.07442 33174 ft 472 kts 153°
2026-04-23 19:49 54.30348 -3.05037 33377 ft 472 kts 153°
2026-04-23 19:49 54.27383 -3.02637 33436 ft 470 kts 153°
2026-04-23 19:50 54.21484 -2.97875 33437 ft 468 kts 153°
2026-04-23 19:50 54.15590 -2.93126 33438 ft 468 kts 153°
2026-04-23 19:51 54.09691 -2.88388 33435 ft 469 kts 153°
2026-04-23 19:51 54.03779 -2.83672 33431 ft 469 kts 153°
2026-04-23 19:52 53.97732 -2.79517 33433 ft 470 kts 162°
2026-04-23 19:52 53.91473 -2.76219 33433 ft 471 kts 161°
2026-04-23 19:53 53.85253 -2.72938 33432 ft 471 kts 161°
2026-04-23 19:53 53.78998 -2.69649 33435 ft 471 kts 161°
2026-04-23 19:54 53.72740 -2.66374 33437 ft 471 kts 162°
2026-04-23 19:54 53.66477 -2.63109 33441 ft 471 kts 161°
2026-04-23 19:55 53.60221 -2.59826 33444 ft 471 kts 161°
2026-04-23 19:55 53.53960 -2.56551 33450 ft 471 kts 161°
2026-04-23 19:56 53.47698 -2.53297 33452 ft 471 kts 161°
2026-04-23 19:56 53.41429 -2.50050 33457 ft 471 kts 162°
2026-04-23 19:57 53.35165 -2.46820 33456 ft 471 kts 162°
2026-04-23 19:57 53.28896 -2.43602 33459 ft 471 kts 162°
2026-04-23 19:58 53.22625 -2.40396 33454 ft 471 kts 162°
2026-04-23 19:58 53.16361 -2.37182 33457 ft 471 kts 162°
2026-04-23 19:59 53.10096 -2.33988 33452 ft 471 kts 162°
2026-04-23 19:59 53.03902 -2.30687 33453 ft 470 kts 156°
2026-04-23 20:00 52.98236 -2.25412 33453 ft 467 kts 145°
2026-04-23 20:00 52.92750 -2.19623 33454 ft 468 kts 146°
2026-04-23 20:01 52.87250 -2.13880 33466 ft 467 kts 146°
2026-04-23 20:01 52.81740 -2.08160 33291 ft 466 kts 146°
2026-04-23 20:01 52.78999 -2.05312 33025 ft 465 kts 146°
2026-04-23 20:02 52.76263 -2.02470 32763 ft 464 kts 146°
2026-04-23 20:02 52.73532 -1.99637 32145 ft 465 kts 146°
2026-04-23 20:02 52.70781 -1.96787 31254 ft 469 kts 146°
2026-04-23 20:02 52.68009 -1.93915 30252 ft 473 kts 146°
2026-04-23 20:03 52.65219 -1.91031 29551 ft 468 kts 146°
2026-04-23 20:03 52.62483 -1.88207 29013 ft 461 kts 146°
2026-04-23 20:03 52.59782 -1.85421 28427 ft 455 kts 146°
2026-04-23 20:03 52.57111 -1.82677 27844 ft 450 kts 147°
2026-04-23 20:04 52.54469 -1.79971 27266 ft 445 kts 147°
2026-04-23 20:04 52.51852 -1.77294 26699 ft 440 kts 147°
2026-04-23 20:04 52.49272 -1.74657 26144 ft 435 kts 147°
2026-04-23 20:04 52.46718 -1.72050 25581 ft 430 kts 147°
2026-04-23 20:05 52.44193 -1.69471 25051 ft 425 kts 147°
2026-04-23 20:05 52.41702 -1.66926 24515 ft 420 kts 147°
2026-04-23 20:05 52.39231 -1.64405 23984 ft 415 kts 147°
2026-04-23 20:05 52.36827 -1.61962 23414 ft 409 kts 147°
2026-04-23 20:06 52.34397 -1.59504 22930 ft 402 kts 147°
2026-04-23 20:06 52.32069 -1.57149 22452 ft 395 kts 147°
2026-04-23 20:06 52.29753 -1.54805 22029 ft 389 kts 147°
2026-04-23 20:06 52.27472 -1.52498 21586 ft 383 kts 147°
2026-04-23 20:07 52.25228 -1.50231 21150 ft 377 kts 147°
2026-04-23 20:07 52.23015 -1.47998 20721 ft 371 kts 147°
2026-04-23 20:07 52.20925 -1.45605 20298 ft 364 kts 139°
2026-04-23 20:07 52.18993 -1.42886 19943 ft 373 kts 138°
2026-04-23 20:08 52.17013 -1.40110 19556 ft 377 kts 138°
2026-04-23 20:08 52.15018 -1.37329 19177 ft 376 kts 138°
2026-04-23 20:08 52.13034 -1.34566 18792 ft 375 kts 138°
2026-04-23 20:08 52.11376 -1.32261 18454 ft 373 kts 138°
2026-04-23 20:09 52.09405 -1.29521 18064 ft 371 kts 138°
2026-04-23 20:09 52.07448 -1.26805 17678 ft 369 kts 138°
2026-04-23 20:09 52.05501 -1.24100 17301 ft 367 kts 138°
2026-04-23 20:09 52.03568 -1.21418 16926 ft 364 kts 138°
2026-04-23 20:10 52.02301 -1.19666 16717 ft 356 kts 138°
2026-04-23 20:10 51.99848 -1.16287 16534 ft 336 kts 138°
2026-04-23 20:10 51.98107 -1.13891 16410 ft 322 kts 137°
2026-04-23 20:10 51.96433 -1.11586 16281 ft 309 kts 137°
2026-04-23 20:11 51.94829 -1.09374 16153 ft 297 kts 137°
2026-04-23 20:11 51.93287 -1.07244 16027 ft 286 kts 137°
2026-04-23 20:11 51.91790 -1.05180 15814 ft 278 kts 137°
2026-04-23 20:11 51.90345 -1.03191 15675 ft 267 kts 137°
2026-04-23 20:12 51.88963 -1.01294 15334 ft 262 kts 137°
2026-04-23 20:12 51.87575 -0.99387 14919 ft 261 kts 137°
2026-04-23 20:12 51.86196 -0.97486 14513 ft 259 kts 135°
2026-04-23 20:12 51.85039 -0.95303 14116 ft 254 kts 120°
2026-04-23 20:13 51.84232 -0.92789 13665 ft 251 kts 114°
2026-04-23 20:13 51.83466 -0.90262 13232 ft 250 kts 114°
2026-04-23 20:13 51.82696 -0.87744 12798 ft 249 kts 114°
2026-04-23 20:13 51.81931 -0.85244 12374 ft 248 kts 114°
2026-04-23 20:14 51.81170 -0.82751 11955 ft 247 kts 114°
2026-04-23 20:14 51.80410 -0.80270 11541 ft 246 kts 114°
2026-04-23 20:14 51.79652 -0.77798 11217 ft 246 kts 114°
2026-04-23 20:14 51.78893 -0.75323 10927 ft 245 kts 114°
2026-04-23 20:15 51.78137 -0.72855 10659 ft 245 kts 114°
2026-04-23 20:15 51.77384 -0.70395 10390 ft 244 kts 114°
2026-04-23 20:15 51.76627 -0.67939 10104 ft 244 kts 115°
2026-04-23 20:15 51.75872 -0.65501 9828 ft 243 kts 115°
2026-04-23 20:16 51.75126 -0.63100 9566 ft 242 kts 115°
2026-04-23 20:16 51.74376 -0.60680 9300 ft 240 kts 115°
2026-04-23 20:16 51.73622 -0.58279 9037 ft 240 kts 118°
2026-04-23 20:16 51.72535 -0.56249 8806 ft 242 kts 140°
2026-04-23 20:17 51.71022 -0.55041 8536 ft 246 kts 162°
2026-04-23 20:17 51.69310 -0.54770 8203 ft 248 kts 175°
2026-04-23 20:17 51.67587 -0.54679 7916 ft 247 kts 175°
2026-04-23 20:17 51.65873 -0.54584 7641 ft 246 kts 174°
2026-04-23 20:18 51.64168 -0.54498 7418 ft 245 kts 177°
2026-04-23 20:18 51.62500 -0.55073 7374 ft 251 kts 202°
2026-04-23 20:18 51.61106 -0.56779 7381 ft 256 kts 229°
2026-04-23 20:18 51.60299 -0.59333 7384 ft 259 kts 256°
2026-04-23 20:19 51.60094 -0.62217 7391 ft 261 kts 265°
2026-04-23 20:19 51.59950 -0.65124 7386 ft 261 kts 265°
2026-04-23 20:19 51.59787 -0.68037 7100 ft 261 kts 264°
2026-04-23 20:19 51.59609 -0.70927 6811 ft 259 kts 264°
2026-04-23 20:20 51.59428 -0.73795 6461 ft 258 kts 264°
2026-04-23 20:20 51.59127 -0.76615 6105 ft 254 kts 246°
2026-04-23 20:20 51.58073 -0.78785 5731 ft 245 kts 211°
2026-04-23 20:20 51.56514 -0.79630 5362 ft 235 kts 178°
2026-04-23 20:21 51.54889 -0.79568 4981 ft 233 kts 174°
2026-04-23 20:21 51.53275 -0.79473 4601 ft 231 kts 174°
2026-04-23 20:21 51.51674 -0.79383 4228 ft 226 kts 174°
2026-04-23 20:21 51.50141 -0.79300 3862 ft 215 kts 173°
2026-04-23 20:22 51.48697 -0.79006 3502 ft 203 kts 153°
2026-04-23 20:22 51.47757 -0.77511 3125 ft 189 kts 110°
2026-04-23 20:22 51.47628 -0.75457 3007 ft 186 kts 90°
2026-04-23 20:22 51.47629 -0.73369 3003 ft 188 kts 90°
2026-04-23 20:23 51.47635 -0.71275 2878 ft 187 kts 90°
2026-04-23 20:23 51.47646 -0.69255 2672 ft 175 kts 90°
2026-04-23 20:23 51.47656 -0.67351 2454 ft 168 kts 90°
2026-04-23 20:23 51.47667 -0.65496 2238 ft 165 kts 89°
2026-04-23 20:24 51.47676 -0.63664 2015 ft 164 kts 89°
2026-04-23 20:24 51.47686 -0.61877 1800 ft 154 kts 89°
2026-04-23 20:24 51.47694 -0.60195 1582 ft 148 kts 89°
2026-04-23 20:24 51.47702 -0.58597 1398 ft 140 kts 89°
2026-04-23 20:25 51.47707 -0.57580 1262 ft 136 kts 89°
2026-04-23 20:25 51.47715 -0.56068 1081 ft 134 kts 89°
2026-04-23 20:25 51.47722 -0.54555 877 ft 138 kts 89°
2026-04-23 20:25 51.47731 -0.52488 638 ft 140 kts 89°
2026-04-23 20:26 51.47736 -0.51441 495 ft 139 kts 89°
2026-04-23 20:26 51.47745 -0.49899 303 ft 139 kts 90°
2026-04-23 20:26 51.47750 -0.48352 135 ft 138 kts 90°
2026-04-23 20:26 51.47754 -0.46925 91 ft 119 kts 90°
2026-04-23 20:27 51.47756 -0.45843 88 ft 72 kts 89°
2026-04-23 20:27 51.47759 -0.45311 88 ft 25 kts 90°
2026-04-23 20:27 51.47671 -0.45178 87 ft 20 kts 177°
2026-04-23 20:27 51.47599 -0.45231 88 ft 12 kts 251°
2026-04-23 20:28 51.47597 -0.45375 87 ft 13 kts 271°
2026-04-23 20:28 51.47596 -0.45526 87 ft 15 kts 269°
2026-04-23 20:28 51.47595 -0.45695 88 ft 16 kts 269°
2026-04-23 20:28 51.47595 -0.45873 90 ft 17 kts 270°
2026-04-23 20:29 51.47594 -0.46063 90 ft 18 kts 269°
2026-04-23 20:29 51.47592 -0.46264 87 ft 18 kts 270°
2026-04-23 20:29 51.47593 -0.46474 87 ft 19 kts 270°
2026-04-23 20:29 51.47592 -0.46693 87 ft 20 kts 269°
2026-04-23 20:30 51.47583 -0.46919 90 ft 20 kts 268°
2026-04-23 20:30 51.47581 -0.47391 90 ft 22 kts 270°
2026-04-23 20:30 51.47579 -0.47645 89 ft 23 kts 269°
2026-04-23 20:31 51.47579 -0.47908 90 ft 24 kts 270°
2026-04-23 20:31 51.47578 -0.48139 90 ft 19 kts 269°
2026-04-23 20:31 51.47577 -0.48339 89 ft 15 kts 269°
2026-04-23 20:31 51.47539 -0.48475 87 ft 14 kts 191°
2026-04-23 20:32 51.47468 -0.48479 87 ft 0 kts 179°
2026-04-23 20:34 51.47467 -0.48479 87 ft 1 kts 179°
2026-04-23 20:34 51.47424 -0.48477 87 ft 9 kts 179°
2026-04-23 20:35 51.47366 -0.48479 87 ft 6 kts 199°
2026-04-23 20:35 51.47360 -0.48527 87 ft 5 kts 270°
2026-04-23 20:35 51.47360 -0.48575 87 ft 3 kts 270°
2026-04-23 20:35 51.47360 -0.48583 87 ft 0 kts 270°